Regional Weather Roundup
Issued by NWS

Home | Current Version | Previous Version | Text Only | Print | Product List | Glossary On
Versions: 1 2 3 4 5 6 7 8 9 10 11 12 13 14 15 16 17 18 19 20 21 22 23 24 25 26 27 28 29 30 31 32 33 34 35 36 37 38 39 40 41 42 43 44 45 46 47 48 49 50
000
ASUS44 KOUN 260910
RWROK

WEATHER ROUNDUP FOR OKLAHOMA
NATIONAL WEATHER SERVICE NORMAN OK
400 AM CDT SAT JUL 26 2014

NOTE: "FAIR" INDICATES FEW OR NO CLOUDS BELOW 12,000 FEET WITH NO
      SIGNIFICANT WEATHER AND/OR OBSTRUCTIONS TO VISIBILITY.

OKZ001>007-009>012-014-015-017-261000-
NORTHWEST OKLAHOMA AND THE PANHANDLE

CITY           SKY/WX    TMP DP  RH WIND       PRES   REMARKS
GAGE           PTCLDY    79  57  46 SW10      29.93R
ENID/WOODRING  CLEAR     73  64  73 S9        29.86S
$$

OKZ016-021>023-033>039-044-045-261000-
SOUTHWEST OKLAHOMA

CITY           SKY/WX    TMP DP  RH WIND       PRES   REMARKS
LAWTON/REGL    CLEAR     77  65  66 SW3       29.92S
LAWTON/FT SILL CLEAR     78  66  64 S9        29.92R
FREDERICK      CLEAR     78  64  61 S9        29.89S
CLINTON        CLEAR     76  60  57 S14       29.95R
HOBART         CLEAR     75  61  61 S12       29.94R
ALTUS AFB        N/A    N/A N/A N/A SE5       29.91S
$$

OKZ018>020-024>031-261000-
CENTRAL OKLAHOMA

CITY           SKY/WX    TMP DP  RH WIND       PRES   REMARKS
OKLAHOMA CITY  PTCLDY    73  66  78 S8        29.92R
OKC/WILEY POST CLEAR     80  66  62 S14       29.92R
OKC/TINKER AFB CLEAR     75  67  76 S10       29.92S
STILLWATER     CLEAR     75  67  76 S7        29.88R
GUTHRIE        CLEAR     83  65  54 S13G23    29.88S
$$

OKZ008-013-054>072-261000-
NORTHEAST OKLAHOMA

CITY           SKY/WX    TMP DP  RH WIND       PRES   REMARKS
TULSA          CLEAR     80  71  74 S12       29.87S
TULSA/JONES    CLEAR     77  72  84 S5        29.89S
PONCA CITY     CLEAR     78  67  68 S6        29.87S
BARTLESVILLE   CLEAR     75  71  87 S5        29.88S
MUSKOGEE       CLEAR     75  72  90 S7        29.92S
$$

OKZ032-040>043-046>053-073>077-261000-
SOUTH CENTRAL/SOUTHEAST OKLAHOMA

CITY           SKY/WX    TMP DP  RH WIND       PRES   REMARKS
ARDMORE/DWNTWN CLEAR     79  68  69 SW3       29.93S
MCALESTER      CLEAR     79  71  76 S6        29.93F
$$



USA.gov is the U.S. government's official web portal to all federal, state and local government web resources and services.